Weather History for Philip, SD

Change the Weather History Date:

Friday, October 21, 2011

  Actual Average Record
Temperature  
Mean Temperature 54 °F 46 °F  
Max Temperature 71 °F 61 °F 86 °F (1974)
Min Temperature 37 °F 32 °F 13 °F (1987)
Degree Days  
Heating Degree Days 11 19  
Month to date heating degree days 228 304  
Since 1 July heating degree days 347 490  
Cooling Degree Days 0 0  
Month to date cooling degree days 36 0  
Year to date cooling degree days 837 814  
Growing Degree Days 3 (Base 50)    
Moisture  
Dew Point 37 °F    
Average Humidity 60    
Maximum Humidity 93    
Minimum Humidity 26    
Precipitation  
Precipitation T in 0.04 in 0.87 in (1953)
Month to date precipitation 0.26 1.05  
Year to date precipitation 15.34 15.92  
Sea Level Pressure  
Sea Level Pressure 30.07 in    
Wind  
Wind Speed 9 mph (WNW)    
Max Wind Speed 21 mph    
Max Gust Speed 28 mph    
Visibility 10 miles    
Events Rain    
T = Trace of Precipitation, MM = Missing Value Source: NWS Daily Summary

Daily Weather History Graph

Daily Weather History Graph

Search for Another Location

Airport:

Trip Planner

Search our weather history database for the weather conditions in past years. The results will help you decide how hot, cold, wet, or windy it might be!

Date:

Astronomy

Oct. 21, 2011 Rise Set
Actual Time 7:08 AM MDT 5:53 PM MDT
Civil Twilight 6:38 AM MDT 6:22 PM MDT
Nautical Twilight 6:05 AM MDT 6:55 PM MDT
Astronomical Twilight 5:31 AM MDT 7:29 PM MDT
Moon 12:48 AM MDT (10/21) 2:49 PM MDT (10/21)
Length of Visible Light 11h 43m
Length of Day
10h 44m
Waning Crescent, 33% of the Moon is Illuminated
Oct 21
Waning Crescent
Oct 26
New
Nov 2
First Quarter
Nov 10
Full
Nov 18
Last Quarter

Hourly Weather History & Observations

Time (MDT) Temp. Windchill Dew Point Humidity Pressure Visibility Wind Dir Wind Speed Gust Speed Precip Events Conditions
12:55 AM 43.0 °F 37.7 °F 32.0 °F 65% 29.98 in 10.0 mi West 9.2 mph - N/A   Clear
1:55 AM 42.1 °F 35.7 °F 32.0 °F 67% 29.99 in 10.0 mi West 11.5 mph - N/A   Clear
2:55 AM 41.0 °F 34.7 °F 32.0 °F 70% 30.00 in 10.0 mi West 10.4 mph - N/A   Clear
3:55 AM 39.0 °F 36.8 °F 32.0 °F 76% 30.01 in 10.0 mi West 3.5 mph - N/A   Clear
4:55 AM 39.9 °F 36.7 °F 32.0 °F 73% 30.02 in 10.0 mi West 4.6 mph - N/A   Clear
5:55 AM 39.0 °F 33.4 °F 32.0 °F 76% 30.05 in 10.0 mi West 8.1 mph - N/A   Clear
6:55 AM 37.9 °F 33.5 °F 32.0 °F 79% 30.07 in 10.0 mi West 5.8 mph - N/A   Clear
7:55 AM 41.0 °F 36.4 °F 34.0 °F 76% 30.08 in 10.0 mi WSW 6.9 mph - N/A   Clear
8:55 AM 50.0 °F - 36.0 °F 59% 30.09 in 10.0 mi West 8.1 mph - N/A   Clear
9:55 AM 57.9 °F - 37.9 °F 47% 30.09 in 10.0 mi West 5.8 mph - N/A   Clear
10:55 AM 66.9 °F - 35.1 °F 31% 30.07 in 10.0 mi North 10.4 mph - N/A   Clear
11:55 AM 69.1 °F - 34.0 °F 27% 30.08 in 10.0 mi North 10.4 mph - N/A   Clear
12:55 PM 69.1 °F - 34.0 °F 27% 30.06 in 10.0 mi North 10.4 mph 16.1 mph N/A   Clear
1:55 PM 68.0 °F - 35.1 °F 30% 30.06 in 10.0 mi North 9.2 mph - N/A   Mostly Cloudy
2:55 PM 69.1 °F - 35.1 °F 29% 30.06 in 10.0 mi NNW 8.1 mph - N/A   Overcast
3:55 PM 66.0 °F - 35.1 °F 32% 30.08 in 10.0 mi North 12.7 mph - N/A   Overcast
4:55 PM 62.1 °F - 39.0 °F 43% 30.10 in 10.0 mi North 18.4 mph 24.2 mph N/A   Mostly Cloudy
5:55 PM 55.0 °F - 44.1 °F 67% 30.14 in 10.0 mi North 11.5 mph - N/A   Overcast
6:55 PM 55.0 °F - 45.0 °F 69% 30.14 in 10.0 mi NNW 16.1 mph - 0.00 in   Overcast
7:55 PM 52.0 °F - 46.9 °F 83% 30.13 in 10.0 mi North 12.7 mph - 0.00 in Rain Light Rain
8:55 PM 48.9 °F - 45.0 °F 86% 30.12 in 10.0 mi WNW 5.8 mph - 0.00 in   Mostly Cloudy
9:55 PM 46.0 °F 43.9 °F 43.0 °F 89% 30.13 in 10.0 mi West 4.6 mph - N/A   Scattered Clouds
10:55 PM 46.9 °F - 44.1 °F 90% 30.12 in 10.0 mi West 8.1 mph - N/A   Overcast
11:55 PM 45.0 °F 41.2 °F 42.1 °F 90% 30.11 in 10.0 mi West 6.9 mph - N/A   Clear